Change the Weather History Date:

Sunday, December 25, 2011

  Actual Average Record
Temperature  
Mean Temperature 42 °F 39 °F  
Max Temperature 55 °F 49 °F 71 °F (1982)
Min Temperature 29 °F 30 °F -2 °F (1983)
Degree Days  
Heating Degree Days 23 26  
Month to date heating degree days 542 594  
Since 1 July heating degree days 1153 1261  
Cooling Degree Days 0 0  
Month to date cooling degree days 0 0  
Year to date cooling degree days 1936 1697  
Moisture  
Dew Point 33 °F    
Average Humidity 68    
Maximum Humidity 100    
Minimum Humidity 35    
Precipitation  
Precipitation 0.00 in 0.16 in 3.66 in (1987)
Month to date precipitation 6.90 4.46  
Year to date precipitation 58.24 52.38  
Snow  
Snow 0.00 in 0.00 in 0.10 in (2009)
Month to date snowfall 1.3 0.1  
Since 1 July snowfall 3.3 0.2  
Snow Depth 0.00 in    
Sea Level Pressure  
Sea Level Pressure 30.38 in    
Wind  
Wind Speed 2 mph (WNW)    
Max Wind Speed 8 mph    
Max Gust Speed 12 mph    
Visibility 10 miles    
Events      
T = Trace of Precipitation, MM = Missing Value Source: NWS Daily Summary

Daily Weather History Graph

Daily Weather History Graph

Search for Another Location

Airport or City:

Trip Planner

Search our weather history database for the weather conditions in past years. The results will help you decide how hot, cold, wet, or windy it might be!

Date:

Astronomy

Dec. 25, 2011 Rise Set
Actual Time 7:03 AM CST 4:48 PM CST
Civil Twilight 6:34 AM CST 5:16 PM CST
Nautical Twilight 6:02 AM CST 5:48 PM CST
Astronomical Twilight 5:31 AM CST 6:19 PM CST
Moon 7:42 AM CST (12/25) 6:06 PM CST (12/25)
Length of Visible Light 10h 42m
Length of Day
9h 45m
New Moon, 1% of the Moon is Illuminated
Dec 25
New Moon
Jan 1
First Quarter
Jan 9
Full
Jan 16
Last Quarter
Jan 23
New

Hourly Weather History & Observations

Time (CST) Temp. Windchill Dew Point Humidity Pressure Visibility Wind Dir Wind Speed Gust Speed Precip Events Conditions
12:53 AM 39.0 °F - 36.0 °F 89% 30.40 in 10.0 mi Calm Calm - N/A   Overcast
1:53 AM 39.0 °F 36.8 °F 36.0 °F 89% 30.38 in 10.0 mi SSE 3.5 mph - N/A   Clear
2:53 AM 39.0 °F - 36.0 °F 89% 30.40 in 10.0 mi Calm Calm - N/A   Scattered Clouds
3:53 AM 39.0 °F 35.7 °F 36.0 °F 89% 30.38 in 10.0 mi NNW 4.6 mph - N/A   Overcast
4:53 AM 41.0 °F - 36.0 °F 82% 30.37 in 10.0 mi Calm Calm - N/A   Overcast
5:53 AM 39.9 °F - 37.9 °F 93% 30.38 in 10.0 mi Calm Calm - N/A   Mostly Cloudy
6:53 AM 39.9 °F 36.7 °F 37.0 °F 89% 30.39 in 10.0 mi North 4.6 mph - N/A   Mostly Cloudy
7:53 AM 39.9 °F - 37.0 °F 89% 30.40 in 10.0 mi Calm Calm - N/A   Mostly Cloudy
8:53 AM 43.0 °F - 37.0 °F 80% 30.42 in 10.0 mi Calm Calm - N/A   Clear
9:53 AM 48.0 °F - 34.0 °F 58% 30.43 in 10.0 mi West 3.5 mph - N/A   Clear
10:53 AM 48.0 °F - 33.1 °F 56% 30.41 in 10.0 mi NW 4.6 mph - N/A   Partly Cloudy
11:53 AM 50.0 °F - 28.0 °F 43% 30.40 in 10.0 mi NNW 6.9 mph - N/A   Clear
12:53 PM 52.0 °F - 28.9 °F 41% 30.37 in 10.0 mi West 4.6 mph - N/A   Clear
1:53 PM 54.0 °F - 26.1 °F 34% 30.34 in 10.0 mi West 3.5 mph - N/A   Clear
2:53 PM 53.6 °F - 28.4 °F 38% 30.32 in 10.0 mi West 5.8 mph - N/A   Clear
3:53 PM 50.0 °F - 32.0 °F 50% 30.34 in 10.0 mi WSW 4.6 mph - N/A   Clear
4:53 PM 48.0 °F - 30.9 °F 52% 30.35 in 10.0 mi Calm Calm - N/A   Clear
5:53 PM 39.2 °F - 33.8 °F 81% 30.35 in 10.0 mi Calm Calm - N/A   Clear
6:53 PM 37.9 °F - 33.1 °F 83% 30.37 in 10.0 mi Calm Calm - N/A   Clear
7:53 PM 35.6 °F - 32.0 °F 87% 30.36 in 10.0 mi Calm Calm - N/A   Clear
8:53 PM 33.1 °F - 30.9 °F 92% 30.36 in 10.0 mi Calm Calm - N/A   Clear
9:53 PM 30.9 °F - 30.0 °F 96% 30.36 in 10.0 mi Calm Calm - N/A   Clear
10:53 PM 30.9 °F - 28.9 °F 92% 30.37 in 10.0 mi Calm Calm - N/A   Clear
11:53 PM 28.9 °F - 28.0 °F 96% 30.36 in 10.0 mi Calm Calm - N/A   Clear